Location: Bluff Heights
(33.7692°N, 118.1592°W)
Time: 23:35:35
(UTC+00:00)

Tiros 1 - Pass Details

Date: 29 July 2021
Orbit: 630 x 663 km, 48.4° (Epoch: 20 September)

Event Time Altitude Azimuth Distance (km) Brightness Sun altitude
Rises 05:34:10 0° 299° (WNW) 2,966 11.6 -27.2°
Reaches altitude 10° 05:37:44 10° 326° (NW) 2,047 10.7 -27.7°
Maximum altitude 05:40:03 13° 356° (N) 1,821 10.1 -28.0°
Drops below altitude 10° 05:42:22 10° 25° (NNE) 2,037 10.0 -28.2°
Enters shadow 05:45:11 - 49° (NE) 2,726 10.4 -28.6°
Sets 05:45:53 0° 53° (NE) 2,938 - -28.7°
